Madison, SD

2:25 AM CDT on July 25, 2016 (GMT -0500)
Madison Municipal

Weather History for KMDS - January, 2013

Change the Weather History Date:

Sunday, January 6, 2013

  Actual Average Record
Temperature  
Mean Temperature 16 °F -  
Max Temperature 26 °F 20 °F 44 °F (2012)
Min Temperature 6 °F 2 °F -18 °F (2014)
Degree Days  
Heating Degree Days 49    
Moisture  
Dew Point 14 °F    
Average Humidity 100    
Maximum Humidity 100    
Minimum Humidity 93    
Precipitation  
Precipitation 0.00 in - - ()
Sea Level Pressure  
Sea Level Pressure 30.08 in    
Wind  
Wind Speed 11 mph (SW)    
Max Wind Speed 23 mph    
Max Gust Speed 31 mph    
Visibility 10 miles    
Events      
Averages and records for this station are not official NWS values.
T = Trace of Precipitation, MM = Missing Value Source: NWS Daily Summary

Daily Weather History Graph

Daily Weather History Graph

Search for Another Location

Airport or City:

Trip Planner

Search our weather history database for the weather conditions in past years. The results will help you decide how hot, cold, wet, or windy it might be!

Date:

Astronomy

Jan. 06, 2013 Rise Set
Actual Time 8:02 AM CST 5:06 PM CST
Civil Twilight 7:30 AM CST 5:38 PM CST
Nautical Twilight 6:54 AM CST 6:14 PM CST
Astronomical Twilight 6:19 AM CST 6:49 PM CST
Moon 2:13 AM CST (1/6) 12:38 PM CST (1/6)
Length of Visible Light 10h 08m
Length of Day
9h 03m
Waning Crescent, 33% of the Moon is Illuminated
Jan 6
Waning Crescent
Jan 11
New
Jan 18
First Quarter
Jan 26
Full
Feb 3
Last Quarter

Hourly Weather History & Observations

Time (CST) Temp. Windchill Dew Point Humidity Pressure Visibility Wind Dir Wind Speed Gust Speed Precip Events Conditions
12:00 AM 8.6 °F -7.7 °F 8.6 °F 100% 30.13 in 10.0 mi NW 13.8 mph - N/A   Partly Cloudy
12:20 AM 10.4 °F -7.7 °F 10.4 °F 100% 30.13 in 10.0 mi NW 18.4 mph 23.0 mph N/A   Mostly Cloudy
12:40 AM 10.4 °F -7.2 °F 10.4 °F 100% 30.12 in 10.0 mi WNW 17.3 mph - N/A   Overcast
1:00 AM 10.4 °F -6.6 °F 10.4 °F 100% 30.11 in 10.0 mi WNW 16.1 mph - N/A   Overcast
1:20 AM 10.4 °F -4.1 °F 10.4 °F 100% 30.11 in 10.0 mi WNW 11.5 mph - N/A   Scattered Clouds
1:40 AM 10.4 °F -2.4 °F 10.4 °F 100% 30.12 in 10.0 mi WNW 9.2 mph - N/A   Clear
2:00 AM 8.6 °F -3.7 °F 8.6 °F 100% 30.12 in 10.0 mi WNW 8.1 mph - N/A   Clear
2:20 AM 6.8 °F -7.8 °F 6.8 °F 100% 30.13 in 10.0 mi WNW 10.4 mph - N/A   Partly Cloudy
2:40 AM 6.8 °F -6.9 °F 6.8 °F 100% 30.14 in 10.0 mi WNW 9.2 mph - N/A   Partly Cloudy
3:00 AM 6.8 °F -3.5 °F 6.8 °F 100% 30.14 in 10.0 mi WNW 5.8 mph - N/A   Clear
3:20 AM 6.8 °F -3.5 °F 6.8 °F 100% 30.14 in 10.0 mi WNW 5.8 mph - N/A   Clear
3:40 AM 6.8 °F -6.9 °F 6.8 °F 100% 30.14 in 10.0 mi WNW 9.2 mph - N/A   Clear
4:00 AM 6.8 °F -4.8 °F 6.8 °F 100% 30.14 in 10.0 mi WNW 6.9 mph - N/A   Clear
4:20 AM 6.8 °F -3.5 °F 6.8 °F 100% 30.13 in 10.0 mi West 5.8 mph - N/A   Clear
4:40 AM 8.6 °F 2.0 °F 8.6 °F 100% 30.13 in 10.0 mi WSW 3.5 mph - N/A   Clear
5:00 AM 8.6 °F -2.6 °F 8.6 °F 100% 30.14 in 10.0 mi West 6.9 mph - N/A   Clear
5:20 AM 8.6 °F -4.7 °F 8.6 °F 100% 30.13 in 10.0 mi West 9.2 mph - N/A   Clear
5:40 AM 8.6 °F -4.7 °F 8.6 °F 100% 30.13 in 10.0 mi West 9.2 mph - N/A   Clear
6:00 AM 8.6 °F -6.3 °F 8.6 °F 100% 30.13 in 10.0 mi WNW 11.5 mph - N/A   Clear
6:20 AM 8.6 °F -3.7 °F 8.6 °F 100% 30.15 in 10.0 mi WNW 8.1 mph - N/A   Clear
6:40 AM 8.6 °F -5.5 °F 8.6 °F 100% 30.15 in 10.0 mi WNW 10.4 mph - N/A   Clear
7:00 AM 8.6 °F -4.7 °F 8.6 °F 100% 30.15 in 10.0 mi West 9.2 mph - N/A   Clear
7:20 AM 10.4 °F -0.4 °F 10.4 °F 100% 30.16 in 10.0 mi West 6.9 mph - N/A   Clear
7:40 AM 8.6 °F 2.0 °F 8.6 °F 100% 30.15 in 10.0 mi West 3.5 mph - N/A   Clear
8:00 AM 8.6 °F 0.1 °F 8.6 °F 100% 30.16 in 10.0 mi WNW 4.6 mph - N/A   Clear
8:20 AM 8.6 °F - 8.6 °F 100% 30.16 in 10.0 mi Calm Calm - N/A   Clear
8:40 AM 8.6 °F - 8.6 °F 100% 30.17 in 10.0 mi Calm Calm - N/A   Clear
9:00 AM 8.6 °F 0.1 °F 8.6 °F 100% 30.18 in 10.0 mi West 4.6 mph - N/A   Clear
9:20 AM 8.6 °F 0.1 °F 8.6 °F 100% 30.18 in 10.0 mi WNW 4.6 mph - N/A   Clear
9:40 AM 10.4 °F 2.2 °F 10.4 °F 100% 30.19 in 10.0 mi WNW 4.6 mph - N/A   Clear
10:00 AM 10.4 °F 4.0 °F 10.4 °F 100% 30.18 in 10.0 mi WNW 3.5 mph - N/A   Clear
10:20 AM 10.4 °F 2.2 °F 10.4 °F 100% 30.18 in 10.0 mi NW 4.6 mph - N/A   Clear
10:40 AM 14.0 °F - 14.0 °F 100% 30.19 in 10.0 mi Calm Calm - N/A   Clear
11:00 AM 14.0 °F 8.2 °F 14.0 °F 100% 30.19 in 10.0 mi SW 3.5 mph - N/A   Clear
11:20 AM 14.0 °F 6.5 °F 14.0 °F 100% 30.18 in 10.0 mi South 4.6 mph - N/A   Clear
11:40 AM 15.8 °F 8.6 °F 15.8 °F 100% 30.17 in 10.0 mi South 4.6 mph - N/A   Clear
12:00 PM 15.8 °F 7.2 °F 15.8 °F 100% 30.16 in 10.0 mi SSW 5.8 mph - N/A   Clear
12:20 PM 15.8 °F 8.6 °F 15.8 °F 100% 30.15 in 10.0 mi South 4.6 mph - N/A   Clear
12:40 PM 17.6 °F 10.7 °F 17.6 °F 100% 30.14 in 10.0 mi SSW 4.6 mph - N/A   Clear
1:00 PM 17.6 °F 9.3 °F 17.6 °F 100% 30.14 in 10.0 mi South 5.8 mph - N/A   Clear
1:20 PM 19.4 °F 10.4 °F 19.4 °F 100% 30.12 in 10.0 mi South 6.9 mph - N/A   Clear
1:40 PM 19.4 °F 8.6 °F 19.4 °F 100% 30.11 in 10.0 mi South 9.2 mph - N/A   Clear
2:00 PM 19.4 °F 7.9 °F 19.4 °F 100% 30.10 in 10.0 mi South 10.4 mph - N/A   Clear
2:20 PM 19.4 °F 7.9 °F 19.4 °F 100% 30.10 in 10.0 mi South 10.4 mph - N/A   Clear
2:40 PM 19.4 °F 6.0 °F 19.4 °F 100% 30.10 in 10.0 mi South 13.8 mph - N/A   Clear
3:00 PM 21.2 °F 10.1 °F 21.2 °F 100% 30.09 in 10.0 mi South 10.4 mph - N/A   Clear
3:20 PM 19.4 °F 7.2 °F 19.4 °F 100% 30.08 in 10.0 mi South 11.5 mph - N/A   Clear
3:40 PM 19.4 °F 7.9 °F 19.4 °F 100% 30.08 in 10.0 mi South 10.4 mph - N/A   Clear
4:00 PM 19.4 °F 8.6 °F 19.4 °F 100% 30.08 in 10.0 mi South 9.2 mph - N/A   Clear
4:40 PM 19.4 °F 7.9 °F 19.4 °F 100% 30.06 in 10.0 mi SSE 10.4 mph - N/A   Clear
5:00 PM 17.6 °F 6.4 °F 17.6 °F 100% 30.04 in 10.0 mi SSE 9.2 mph - N/A   Clear
5:20 PM 17.6 °F 6.4 °F 17.6 °F 100% 30.03 in 10.0 mi SSE 9.2 mph - N/A   Clear
5:40 PM 17.6 °F 5.0 °F 17.6 °F 100% 30.02 in 10.0 mi South 11.5 mph - N/A   Clear
6:00 PM 17.6 °F 4.3 °F 17.6 °F 100% 30.02 in 10.0 mi SSE 12.7 mph 18.4 mph N/A   Clear
6:20 PM 17.6 °F 4.3 °F 17.6 °F 100% 30.01 in 10.0 mi SSE 12.7 mph 18.4 mph N/A   Clear
6:40 PM 17.6 °F 4.3 °F 17.6 °F 100% 30.00 in 10.0 mi South 12.7 mph - N/A   Clear
7:00 PM 17.6 °F 2.7 °F 17.6 °F 100% 29.98 in 10.0 mi South 16.1 mph - N/A   Clear
7:20 PM 17.6 °F 2.2 °F 17.6 °F 100% 29.97 in 10.0 mi South 17.3 mph - N/A   Clear
7:40 PM 19.4 °F 3.6 °F 19.4 °F 100% 29.95 in 10.0 mi South 19.6 mph 26.5 mph N/A   Clear
8:00 PM 19.4 °F 4.1 °F 19.4 °F 100% 29.94 in 10.0 mi South 18.4 mph - N/A   Clear
8:20 PM 19.4 °F 4.1 °F 19.4 °F 100% 29.93 in 10.0 mi South 18.4 mph - N/A   Clear
9:00 PM 21.2 °F 6.8 °F 21.2 °F 100% 29.90 in 10.0 mi South 17.3 mph - N/A   Clear
9:20 PM 24.8 °F 11.9 °F 24.8 °F 100% 29.89 in 10.0 mi South 16.1 mph 20.7 mph N/A   Clear
9:40 PM 24.8 °F 10.0 °F 24.8 °F 100% 29.87 in 10.0 mi South 21.9 mph - N/A   Clear
10:00 PM 24.8 °F 9.6 °F 24.8 °F 100% 29.86 in 10.0 mi South 23.0 mph 31.1 mph N/A   Clear
10:20 PM 26.6 °F 13.4 °F 26.6 °F 100% 29.87 in 10.0 mi South 18.4 mph - N/A   Clear
10:40 PM 26.6 °F 12.0 °F 24.8 °F 93% 29.86 in 10.0 mi South 23.0 mph 28.8 mph N/A   Clear
11:20 PM 24.8 °F 11.1 °F 24.8 °F 100% 29.86 in 10.0 mi South 18.4 mph 26.5 mph N/A   Clear
11:40 PM 24.8 °F 11.5 °F 24.8 °F 100% 29.86 in 10.0 mi South 17.3 mph 21.9 mph N/A   Clear